Regional Weather Roundup
Issued by NWS

Home | Current Version | Previous Version | Graphics & Text | Print | Product List | Glossary On
Versions: 1 2 3 4 5 6 7 8 9 10 11 12 13 14 15 16 17 18 19 20 21 22 23 24 25 26 27 28 29 30 31 32 33 34 35 36 37 38 39 40 41 42 43 44 45 46 47 48 49 50
000
ASUS45 KSLC 292310
RWRUT

UTAH REGIONAL WEATHER ROUNDUP
NATIONAL WEATHER SERVICE SALT LAKE CITY UT
500 PM MDT FRI AUG 29 2014

UTZ001>011-023>025-300000-

NORTHERN UTAH

CITY           SKY/WX    TMP DP  RH WIND       PRES   REMARKS
HILL AFB       MOSUNNY   85  41  21 S2        30.03F
LOGAN          SUNNY     85  45  24 W5        30.00F
OGDEN          MOSUNNY   86  39  19 W6        30.00F
PROVO AIRPORT  MOSUNNY   86  41  20 CALM      30.03F
SALT LAKE CITY PTSUNNY   87  39  18 S5        29.98F
VERNAL         PTSUNNY   74  42  31 NW10      30.11F
WENDOVER       PTSUNNY   86  37  17 CALM      29.97F
HEBER CITY     MOSUNNY   82  37  20 SW8       30.09S
WEST JORDAN    MOSUNNY   86  45  23 CALM      30.02F

$$

UTZ012>022-026-027-300000-

SOUTHERN UTAH

CITY           SKY/WX    TMP DP  RH WIND       PRES   REMARKS
BRYCE CANYON   MOSUNNY   77  32  19 W12       30.26F
CEDAR CITY     MOSUNNY   84  25  11 SW3       30.08F
MILFORD        MOSUNNY   89  30  12 SE6       30.02F
MOAB/CYNLANDS  SUNNY     86  33  15 E6        30.01F
PRICE          MOSUNNY   82  31  15 CALM      30.13F
ST GEORGE      PTCLDY    99  37  12 N6        29.89F HX  93

$$

REGIONAL REPORTS     COLORADO/ARIZONA

CITY           SKY/WX    TMP DP  RH WIND       PRES   REMARKS
CRAIG, CO      MOSUNNY   76  42  29 W8        30.14S
GRAND JUNCTION MOSUNNY   83  36  18 VRB5      30.06F
RIFLE          MOSUNNY   80  42  25 W8        30.10F
MONTROSE       SUNNY     80  41  24 N8        30.14F
CORTEZ         SUNNY     83  38  20 N9        30.12F
PAGE, AZ       SUNNY     92  32  12 CALM      30.01F
GRAND CANYON   SUNNY     81  34  18 NE9G17    30.20F
KINGMAN        SUNNY     98  33  10 NW8       29.93F HX  92
FLAGSTAFF      SUNNY     80  35  19 NE8       30.23F

$$

REGIONAL REPORTS    NEVADA/IDAHO/WYOMING

CITY           SKY/WX    TMP DP  RH WIND       PRES   REMARKS
LAS VEGAS, NV  MOSUNNY  103  30   8 SE7       29.77F HX  96
ELY            PTSUNNY   84  27  12 SW15      30.11F
ELKO           CLOUDY    89  30  12 SW9       29.99F
POCATELLO, ID  MOSUNNY   89  39  17 W13       29.97F
BURLEY         MOSUNNY   84  49  29 SE6       29.95F
EVANSTON, WY   MOSUNNY   73  39  29 W14       30.19F
ROCK SPRINGS   SUNNY     76  33  21 W12G22    30.15F

$$



USA.gov is the U.S. government's official web portal to all federal, state and local government web resources and services.